Track COSMOS 2128 now! 10-day predictions COSMOS 2128 is classified as:
1 21103U 91009D 22227.36934392 -.00000001 00000-0 93894-4 0 9999 2 21103 74.0331 327.4660 0014715 29.5126 330.6753 12.51891159439801